Regional Weather Roundup
Issued by NWS

Home | Current Version | Previous Version | Graphics & Text | Print | Product List | Glossary On
Versions: 1 2 3 4 5 6 7 8 9 10 11 12 13 14 15 16 17 18 19 20 21 22 23 24 25 26 27 28 29 30 31 32 33 34 35 36 37 38 39 40 41 42 43 44 45 46 47 48 49 50
443
ASUS43 KBIS 230910
RWRND

NORTH DAKOTA REGIONAL WEATHER ROUNDUP
NATIONAL WEATHER SERVICE BISMARCK ND
300 AM CST THU FEB 23 2017

NOTE: "FAIR" INDICATES FEW OR NO CLOUDS BELOW 12,000 FEET WITH NO
SIGNIFICANT WEATHER AND/OR OBSTRUCTIONS TO VISIBILITY.


NDZ001>003-009>011-017-231000-
NORTHWEST NORTH DAKOTA

CITY           SKY/WX    TMP DP  RH WIND       PRES   REMARKS
WILLISTON      CLOUDY    29  26  89 CALM      29.99F
MINOT          CLOUDY    31  27  85 NW6       29.96F
MINOT AFB      MOCLDY    30  27  89 NW7       29.95F
$$

NDZ018>021-031>035-040>046-231000-
SOUTHWEST NORTH DAKOTA

CITY           SKY/WX    TMP DP  RH WIND       PRES   REMARKS
BISMARCK       CLOUDY    27  25  92 NW3       30.00S
DICKINSON      CLOUDY    23  20  88 CALM      29.96R
GARRISON         N/A     24  21  88 NW6       29.97  WCI  17
HETTINGER ARPT CLOUDY    27  25  92 NE6       29.97R FOG
$$

NDZ004>008-012>016-024-026-027-054-231000-
NORTHEAST NORTH DAKOTA

CITY           SKY/WX    TMP DP  RH WIND       PRES   REMARKS
GRAND FORKS    MOCLDY    28  21  75 N7        29.98S
GRND FRKS AFB  CLOUDY    27  23  85 N8        29.99S WCI  19
DEVILS LAKE    FAIR      24  21  88 N12       29.97S WCI  13
$$

NDZ022-023-025-028>030-036>039-047>053-231000-
SOUTHEAST NORTH DAKOTA

CITY           SKY/WX    TMP DP  RH WIND       PRES   REMARKS
FARGO          CLEAR     28  25  88 N6        29.98R
JAMESTOWN      FAIR      23  22  96 NW8       29.97S WCI  14
$$





USA.gov is the U.S. government's official web portal to all federal, state and local government web resources and services.